SCD 1

Satellite information

Favourite Embed

Satellite Type and Status

PAYLOADIN ORBIT

Key statistics

Satellite SCD 1 at a glance.

Uptime

11995

Days in orbit

Revolutions

≈ 14.5

Per day

Orbit

LEO

Low Earth Orbit

Inclination

25.0

Latest

Satellite identification and parameters

Extended collection of information and parameters for SCD 1.

Object identification

Identified? True

Debris? False

Object name: SCD 1

International designator: 1993-009B

Object number (NORAD): 22490

Object ID (CCSDS): 22490

Country: BRAZIL (BRAZ)

Current information (Y/N): Y

RCS size: MEDIUM

Orbital parameters

Period: 99.585 minutes

Inclination: 24.97 deg

SMA: 7116.885 km

Apoapsis: 768.487 km

Periapsis: 709.013 km

RAAN: 281.8676 deg

Eccentricy: 0.00417838

Argument of periapsis: 319.5532 deg

Mean anomaly: 182.0481 deg

Mean motion: 14.4599861 rev/day

Mean motion (dot): 0.00000743 rev/day2

B* drag term: 0.00015231045 1/REarth

Two-line elements (TLE)

Creation date: Dec. 12, 2025, 10:14 a.m.

Reference frame: TEME

Reference center: EARTH

Epoch: Dec. 12, 2025, 5:23 a.m. UTC

TLE line 0: 0 SCD 1

TLE line 1: 1 22490U 93009B 25346.22460315 .00000743 00000-0 15231-3 0 9990

TLE line 2: 2 22490 24.9700 281.8676 0041784 319.5532 182.0481 14.45998610734028

Live tracking on map

Real-time ground track for satellite SCD 1.

In-orbit conjunctions

There are no conjunctions computed for SCD 1, at the moment. Check back to stay up to date, as we update our databases every day.

Go to all conjunctions

Associated space launch

SCD 1 was lifted into orbit during the mission ‘Pegasus | Satélite de Coleta de Dados-1 (SCD-1)’, on board a Pegasus space rocket.

The launch took place on Feb. 9, 1993, 2:30 p.m. from Cape Canaveral.

For more information about the launch, click the button.

Launch to space Pegasus | Satélite de Coleta de Dados-1 (SCD-1)
Pegasus | Satélite de Coleta de Dados-1 (SCD-1)

Agency: N/A

Status: Launch Successful

Launch date: Feb. 9, 1993, 2:30 p.m. UTC

Rocket: Pegasus

Launch pad: Cape Canaveral

Location: Air launch to orbit

...

Latest news about this satellite

There are no fresh news available about this satellite. Check back as we update our databases every day.


Newsletter sign-up

Weekly statistics, charts and insights to help you stay on top of the space industry.